STARLINK-4199, 52857

Orbit data source: Space-Track

STARLINK-4199, 52857 is a payload satellite owned by SpaceX/Seattle (US) in LEO that was launched on Fri, 17 Jun 2022 UTC via an FALCON 9 launch vehicle from the Air Force Eastern Test Range (AFETR). Payload-class satellites include a variety of spacecraft equipped with specific instruments for various scientific and technological missions. These include communications satellites like Starlink; space stations such as the ISS; scientific satellites like the Hubble; Earth observation satellites from companies like Planet Labs, Umbra, and HawkEye 360; GPS; miniature CubeSats for education and research; and military/defense satellites.

Loading next visibility...
Identifier
52857, 2022-062AD
Orbit
LEO
Country
Flag of USUS
Related business
Manufacturer
SpaceX/Seattle
Mission
Operational Commercial Communications
Bus & Motor
STARLINK, Unknown motor
Mass
297 kg wet, ~275 kg dry
Launch date (UTC)
2022-06-17 (4 years ago)
Launch vehicle
FALCON 9
Launch site
Air Force Eastern Test Range (AFETR)
Object type
Payload
Rocket body
Debris
Shape & HBR
Box + 1 Pan, 10.1 m
Radar Cross Section
13.562 m², Large (>1 m²)

Expand to show TLE details & history
Last TLE update: 3 days ago

TLE from 3 days ago
0 STARLINK-4199
1 52857U 22062AD  26170.62457724  .00000202  00000-0  30771-4 0  9998
2 52857  53.1598 286.4039 0001128  88.7869 271.3251 15.08831193221319
Epoch: 2026-06-19T14:59Z
TLE epoch observation values (Epoch: 2026-06-19T14:59:23.473Z)
Latitude
-0.00008°
Longitude
153.70516°
Altitude
540.644 km
Speed
7.593 km/s
True Right ascension
19h 05m 36s
True Declination
0° 00' 00"
Sunlit
Object was in full shadow at epoch
Visualization orbit readout
Latitude
Unknown
Longitude
Unknown
Altitude
Unknown
Speed
Unknown
Apparent Right ascension
Unknown
Apparent Declination
Unknown
Sunlit
N/A
Visualization observer readout
Local Sidereal Time
23:18:18
Azimuth
Unknown
Elevation
Unknown
Doppler factor
Unknown
Orbital elements
Apogee altitude
540.805 km
Perigee altitude
539.244 km
Semi-major axis
6,918.161 km
Eccentricity
0.00011
Inclination
53.1598°
RAAN
286.4039°
Arg. of periapsis
88.7869°
True anomaly
271.31218°
Mean anomaly
271.3251°
Eccentric anomaly
271.31864°
Mean motion
3.77187 °/min
Orbital period
95.44 mins
BSTAR
0.000030771
Loading maneuver chart data...
Computing Atmospheric mass density...
Loading historical data...
Loading historical data...
Loading historical data...
Loading historical data...
Loading historical data...
Loading historical data...
Loading historical data...

Documentation

Showing up to 5 results
|